STARLINK-1336 (45557 NORAD) Tracking and Keplerian Element Data

This shows tracking and keplerian element data for the satellite.

Feedback or suggestion? Click here.




ElementValue
Catalog45557
NameSTARLINK-1336
Epoch Orbit1267
Epoch Day190.16667824
Epoch Year2020
RAAN24.4343
Inclination52.9998
Eccentricity0.0001301
Argument of Perigee73.9453
Mean Anonmoly75.7141
Mean Motion15.5212885
Decay Rate-0.01190332
L11 45557U 20025AC 20190.16667824 -.01190332 00000-0 -21211-1 0 9996
L22 45557 52.9998 24.4343 0001301 73.9453 75.7141 15.52128850 12674

Live tracking and technical data element details for STARLINK-1336 (NORAD 45557). STARLINK-1336 can be tracked NOW for your location showing map with azimuth and elevation plus other details from your city location.

Track the satellite on the map from your city or location and see movement details for azimuth, elevation, latitude, longitude, range, height, and movement on the map or in text.







IsCatalogInMostPopularTable: catalog: 45557, numindb: 18
Update: records affected: 1



GetName: 45557 STARLINK-1336

Hit Count: updated at: Thu, 09 Jul 2020 01:07:20 GMT